This demonstration page uses our WeatherBlox Daily Observations layout. Learn more.

Left ArrowRight Arrow

39.08367, -84.50855

Hourly Observations for December 8, 2020

Temp ( °F °C ) Dew Point ( °F °C ) Humidity (%) Winds ( mph kmh ) Pressure ( in mb ) Visibility ( mi km ) Precip ( " mm )
2:53 am 02:53 Cloudy 32 0 21 -6.1 64 64 NW 6 9 30.13 1020 10 16.0934 0 0
3:53 am 03:53 Cloudy 32 0 21 -6.1 64 64 NW 6 9 30.14 1021 10 16.0934 0 0
4:53 am 04:53 Cloudy 32 0 20 -6.7 61 61 WNW 6 9 30.14 1021 10 16.0934 0 0
5:53 am 05:53 Cloudy 32 0 20 -6.7 61 61 WNW 8 13 30.15 1021 10 16.0934 0 0
6:53 am 06:53 Cloudy 32 0 20 -6.7 61 61 WNW 6 9 30.16 1021 10 16.0934 0 0
7:53 am 07:53 Cloudy 32 0 20 -6.7 61 61 NW 6 9 30.17 1022 10 16.0934 0 0
8:53 am 08:53 Cloudy 33 0.6 20 -6.7 58 58 NW 7 11 30.19 1023 10 16.0934 0 0
9:53 am 09:53 Cloudy 34 1.1 21 -6.1 59 59 WNW 5 7 30.21 1023 10 16.0934 0 0
10:53 am 10:53 Cloudy 35 1.7 22 -5.6 59 59 W 7 11 30.19 1022 10 16.0934 0 0
11:53 am 11:53 Cloudy 35 1.7 21 -6.1 57 57 WNW 5 7 30.19 1023 10 16.0934 0 0
12:53 pm 12:53 Cloudy 36 2.2 22 -5.6 57 57 VRB 7 11 30.18 1022 10 16.0934 0 0
1:53 pm 13:53 Cloudy 36 2.2 23 -5 59 59 SW 3 6 30.13 1020 10 16.0934 0 0
2:53 pm 14:53 Cloudy 37 2.8 24 -4.4 59 59 SSW 8 13 30.13 1020 10 16.0934 0 0
3:53 pm 15:53 Cloudy 36 2.2 23 -5 59 59 SW 10 17 30.13 1020 10 16.0934 0 0
4:53 pm 16:53 Cloudy 36 2.2 24 -4.4 62 62 SSW 9 15 30.14 1021 10 16.0934 0 0
5:53 pm 17:53 Cloudy 35 1.7 24 -4.4 64 64 W 9 15 30.14 1021 10 16.0934 0 0
6:53 pm 18:53 Cloudy 35 1.7 25 -3.9 67 67 S 10 17 30.09 1019 10 16.0934 0 0
7:53 pm 19:53 Clear 33 0.6 25 -3.9 72 72 S 9 15 30.07 1018 10 16.0934 0 0
8:53 pm 20:53 Clear 33 0.6 25 -3.9 72 72 S 6 9 30.1 1019 10 16.0934 0 0
9:53 pm 21:53 Clear 33 0.6 25 -3.9 72 72 SSW 6 9 30.1 1019 10 16.0934 0 0
10:53 pm 22:53 Clear 33 0.6 25 -3.9 72 72 SSW 8 13 30.08 1019 10 16.0934 0 0
11:53 pm 23:53 Clear 32 0 25 -3.9 75 75 SSW 8 13 30.07 1018 10 16.0934 0 0

Powered by AerisWeather